Rhinelander, WI

3:49 AM CST on November 22, 2017 (GMT -0600)
Rhinelander-Oneida County

Weather History for KRHI - March, 2014

Change the Weather History Date:

Saturday, March 1, 2014

  Actual Average Record
Temperature  
Mean Temperature -2 °F 21 °F  
Max Temperature 5 °F 31 °F 54 °F (1993)
Min Temperature -9 °F 11 °F -36 °F (1962)
Degree Days  
Heating Degree Days 67 44  
Month to date heating degree days 67 44  
Since 1 July heating degree days 7696 6666  
Cooling Degree Days 0 0  
Month to date cooling degree days 0 0  
Year to date cooling degree days 0 0  
Moisture  
Dew Point -10 °F    
Average Humidity 69    
Maximum Humidity 87    
Minimum Humidity 51    
Precipitation  
Precipitation 0.00 in 0.04 in 0.59 in (1976)
Month to date precipitation 0.00 0.04  
Year to date precipitation 2.61 2.08  
Snow  
Snow 0.00 in - 7.00 in (2007)
Month to date snowfall 0.0  
Since 1 July snowfall 72.5  
Snow Depth 26.00 in    
Sea Level Pressure  
Sea Level Pressure 30.28 in    
Wind  
Wind Speed 7 mph (NW)    
Max Wind Speed 15 mph    
Max Gust Speed 21 mph    
Visibility 10 miles    
Events      
T = Trace of Precipitation, MM = Missing Value Source: NWS Daily Summary

Daily Weather History Graph

Daily Weather History Graph

Search for Another Location

Airport or City:

Trip Planner

Search our weather history database for the weather conditions in past years. The results will help you decide how hot, cold, wet, or windy it might be!

Date:

Astronomy

Mar. 01, 2014 Rise Set
Actual Time 6:36 AM CST 5:44 PM CST
Civil Twilight 6:06 AM CST 6:14 PM CST
Nautical Twilight 5:32 AM CST 6:48 PM CST
Astronomical Twilight 4:57 AM CST 7:23 PM CST
Moon 6:27 AM CST (3/1) 6:36 PM CST (3/1)
Length of Visible Light 12h 08m
Length of Day
11h 08m
New Moon, 0% of the Moon is Illuminated
Mar 1
New Moon
Mar 8
First Quarter
Mar 16
Full
Mar 23
Last Quarter
Mar 30
New

Hourly Weather History & Observations

Time (CST) Temp. Windchill Dew Point Humidity Pressure Visibility Wind Dir Wind Speed Gust Speed Precip Events Conditions
12:53 AM 1.9 °F -9.2 °F -2.9 °F 80% 30.11 in 10.0 mi WNW 5.8 mph - N/A   Partly Cloudy
1:53 AM 1.0 °F -10.3 °F -6.0 °F 72% 30.13 in 10.0 mi NW 5.8 mph - N/A   Clear
2:53 AM -0.0 °F -13.0 °F -7.1 °F 72% 30.14 in 10.0 mi NW 6.9 mph - N/A   Clear
3:53 AM -2.0 °F -15.4 °F -8.0 °F 76% 30.17 in 10.0 mi NW 6.9 mph - N/A   Clear
4:53 AM -2.9 °F -13.3 °F -8.0 °F 79% 30.20 in 10.0 mi Variable 4.6 mph - N/A   Clear
5:53 AM -4.0 °F -14.6 °F -9.0 °F 79% 30.21 in 10.0 mi NNW 4.6 mph - N/A   Clear
6:53 AM -4.0 °F -14.6 °F -9.0 °F 79% 30.24 in 10.0 mi WNW 4.6 mph - N/A   Clear
7:53 AM -2.9 °F -15.0 °F -9.0 °F 75% 30.28 in 10.0 mi WNW 5.8 mph - N/A   Mostly Cloudy
8:53 AM -0.9 °F -14.1 °F -8.0 °F 72% 30.29 in 10.0 mi WNW 6.9 mph - N/A   Clear
9:53 AM 1.0 °F -11.7 °F -7.1 °F 69% 30.30 in 10.0 mi Variable 6.9 mph - N/A   Partly Cloudy
10:53 AM 3.0 °F -10.5 °F -8.0 °F 60% 30.31 in 10.0 mi West 8.1 mph - N/A   Scattered Clouds
11:10 AM 3.9 °F -11.3 °F -8.0 °F 58% 30.18 in 10.0 mi WNW 10.4 mph - N/A   Mostly Cloudy
11:53 AM 3.9 °F -6.9 °F -8.0 °F 58% 30.31 in 10.0 mi WNW 5.8 mph - N/A   Overcast
12:53 PM 3.9 °F -9.4 °F -7.1 °F 60% 30.30 in 6.0 mi West 8.1 mph - N/A   Haze
1:18 PM 3.9 °F -8.2 °F -8.0 °F 58% 30.17 in 10.0 mi NW 6.9 mph - N/A   Overcast
1:32 PM 3.9 °F -13.7 °F -7.1 °F 60% 30.17 in 10.0 mi West 13.8 mph - N/A   Overcast
1:53 PM 3.9 °F -13.7 °F -7.1 °F 60% 30.30 in 10.0 mi West 13.8 mph - N/A   Mostly Cloudy
2:53 PM 3.9 °F -13.0 °F -9.0 °F 55% 30.31 in 10.0 mi WNW 12.7 mph 19.6 mph N/A   Mostly Cloudy
3:53 PM 3.9 °F -12.2 °F -9.9 °F 53% 30.31 in 10.0 mi NW 11.5 mph 17.3 mph N/A   Mostly Cloudy
4:53 PM 3.0 °F -11.5 °F -11.0 °F 52% 30.33 in 10.0 mi NW 9.2 mph - N/A   Partly Cloudy
5:53 PM 1.0 °F -10.3 °F -11.9 °F 55% 30.34 in 10.0 mi Variable 5.8 mph - N/A   Scattered Clouds
6:53 PM -0.9 °F -16.4 °F -11.0 °F 62% 30.39 in 10.0 mi NW 9.2 mph - N/A   Scattered Clouds
7:53 PM -2.9 °F -16.5 °F -14.1 °F 59% 30.41 in 10.0 mi NNW 6.9 mph - N/A   Clear
8:53 PM -5.1 °F -20.4 °F -15.0 °F 62% 30.43 in 10.0 mi North 8.1 mph - N/A   Clear
9:53 PM -6.0 °F -18.6 °F -17.0 °F 59% 30.43 in 10.0 mi NNW 5.8 mph - N/A   Clear
10:53 PM -7.1 °F -15.9 °F -20.0 °F 53% 30.43 in 10.0 mi Variable 3.5 mph - N/A   Clear
11:53 PM -9.0 °F -23.8 °F -22.0 °F 53% 30.44 in 10.0 mi NW 6.9 mph - N/A   Clear